Weather History for KMMU - November, 2012

Change the Weather History Date:

Thursday, November 8, 2012

  Actual Average Record
Temperature  
Mean Temperature 40 °F -  
Max Temperature 46 °F 54 °F 75 °F (1945)
Min Temperature 35 °F 34 °F 18 °F (1931)
Degree Days  
Heating Degree Days 24    
Moisture  
Dew Point 23 °F    
Average Humidity 55    
Maximum Humidity 75    
Minimum Humidity 34    
Precipitation  
Precipitation 0.00 in - - ()
Sea Level Pressure  
Sea Level Pressure 29.82 in    
Wind  
Wind Speed 9 mph (NNW)    
Max Wind Speed 17 mph    
Max Gust Speed 29 mph    
Visibility 10 miles    
Events Snow    
Averages and records for this station are not official NWS values.
T = Trace of Precipitation, MM = Missing Value Source: NWS Daily Summary

Daily Weather History Graph

Daily Weather History Graph

Search for Another Location

Airport or City:

Trip Planner

Search our weather history database for the weather conditions in past years. The results will help you decide how hot, cold, wet, or windy it might be!

Date:

Astronomy

Nov. 08, 2012 Rise Set
Actual Time 6:36 AM EST 4:45 PM EST
Civil Twilight 6:07 AM EST 5:14 PM EST
Nautical Twilight 5:35 AM EST 5:47 PM EST
Astronomical Twilight 5:03 AM EST 6:19 PM EST
Moon 12:27 AM EST (11/8) 1:27 PM EST (11/8)
Length of Visible Light 11h 06m
Length of Day
10h 08m
Waning Crescent, 33% of the Moon is Illuminated
Nov 8
Waning Crescent
Nov 13
New
Nov 20
First Quarter
Nov 28
Full
Dec 6
Last Quarter

Hourly Weather History & Observations

Time (EST) Temp. Windchill Dew Point Humidity Pressure Visibility Wind Dir Wind Speed Gust Speed Precip Events Conditions
12:15 AM 35.6 °F 27.5 °F 28.4 °F 75% 29.80 in 5.0 mi North 11.5 mph 19.6 mph N/A Snow Light Snow
12:35 AM 35.6 °F 28.0 °F 26.6 °F 70% 29.79 in 10.0 mi NNW 10.4 mph 18.4 mph N/A   Overcast
12:55 AM 35.6 °F 27.5 °F 26.6 °F 70% 29.79 in 10.0 mi NNW 11.5 mph 18.4 mph N/A   Overcast
1:15 AM 35.6 °F 29.2 °F 26.6 °F 70% 29.78 in 10.0 mi NNW 8.1 mph 16.1 mph N/A   Overcast
1:35 AM 35.6 °F 29.2 °F 26.6 °F 70% 29.78 in 10.0 mi NNW 8.1 mph 16.1 mph N/A   Overcast
1:55 AM 35.6 °F 28.6 °F 26.6 °F 70% 29.77 in 10.0 mi NNW 9.2 mph - N/A   Overcast
2:15 AM 37.4 °F 30.8 °F 26.6 °F 65% 29.77 in 10.0 mi NNW 9.2 mph - N/A   Overcast
2:35 AM 37.4 °F 29.3 °F 26.6 °F 65% 29.77 in 10.0 mi NNW 12.7 mph 18.4 mph N/A   Overcast
2:55 AM 37.4 °F 32.1 °F 24.8 °F 60% 29.76 in 10.0 mi NNW 6.9 mph - N/A   Overcast
3:15 AM 37.4 °F 31.4 °F 23.0 °F 56% 29.77 in 10.0 mi NNW 8.1 mph 16.1 mph N/A   Overcast
3:35 AM 37.4 °F 32.1 °F 23.0 °F 56% 29.77 in 10.0 mi North 6.9 mph - N/A   Overcast
3:55 AM 37.4 °F 30.8 °F 23.0 °F 56% 29.77 in 10.0 mi North 9.2 mph 16.1 mph N/A   Overcast
4:15 AM 37.4 °F 31.4 °F 23.0 °F 56% 29.77 in 10.0 mi NNW 8.1 mph - N/A   Overcast
4:35 AM 37.4 °F 32.1 °F 23.0 °F 56% 29.77 in 10.0 mi NNW 6.9 mph - N/A   Overcast
4:55 AM 37.4 °F 32.1 °F 23.0 °F 56% 29.77 in 10.0 mi NNW 6.9 mph - N/A   Overcast
5:15 AM 37.4 °F 32.8 °F 23.0 °F 56% 29.77 in 10.0 mi NNW 5.8 mph - N/A   Overcast
5:35 AM 37.4 °F 32.8 °F 23.0 °F 56% 29.77 in 10.0 mi NNW 5.8 mph - N/A   Overcast
6:45 AM 37.4 °F 32.8 °F 23.0 °F 56% 29.79 in 10.0 mi North 5.8 mph - N/A   Mostly Cloudy
7:45 AM 37.4 °F 30.3 °F 21.2 °F 52% 29.81 in 10.0 mi NNW 10.4 mph - N/A   Mostly Cloudy
8:45 AM 37.4 °F 30.8 °F 23.0 °F 56% 29.81 in 10.0 mi North 9.2 mph - N/A   Mostly Cloudy
9:45 AM 39.2 °F 33.6 °F 23.0 °F 52% 29.82 in 10.0 mi NNW 8.1 mph 19.6 mph N/A   Mostly Cloudy
10:45 AM 41.0 °F 33.9 °F 23.0 °F 49% 29.81 in 10.0 mi North 12.7 mph 21.9 mph N/A   Mostly Cloudy
11:45 AM 42.8 °F 37.0 °F 19.4 °F 39% 29.79 in 10.0 mi NNW 10.4 mph 18.4 mph N/A   Mostly Cloudy
12:45 PM 44.6 °F 40.2 °F 19.4 °F 37% 29.78 in 10.0 mi NNW 8.1 mph 18.4 mph N/A   Mostly Cloudy
1:45 PM 46.4 °F 41.1 °F 21.2 °F 37% 29.77 in 10.0 mi NNW 11.5 mph 26.5 mph N/A   Mostly Cloudy
2:45 PM 44.6 °F 37.2 °F 21.2 °F 39% 29.80 in 10.0 mi North 17.3 mph 28.8 mph N/A   Mostly Cloudy
3:45 PM 44.6 °F 38.8 °F 17.6 °F 34% 29.81 in 10.0 mi North 11.5 mph 24.2 mph N/A   Mostly Cloudy
4:45 PM 44.6 °F 39.7 °F 17.6 °F 34% 29.82 in 10.0 mi North 9.2 mph 13.8 mph N/A   Mostly Cloudy
5:45 PM 44.6 °F 40.2 °F 17.6 °F 34% 29.85 in 10.0 mi North 8.1 mph 19.6 mph N/A   Mostly Cloudy
6:45 PM 42.8 °F 35.8 °F 19.4 °F 39% 29.87 in 10.0 mi North 13.8 mph 20.7 mph N/A   Scattered Clouds
8:45 PM 41.0 °F 38.0 °F 21.2 °F 45% 29.92 in 10.0 mi NNW 4.6 mph 18.4 mph N/A   Clear
9:55 PM 37.4 °F 29.3 °F 24.8 °F 60% 29.93 in 10.0 mi NW 12.7 mph 18.4 mph N/A   Clear
10:15 PM 37.4 °F 30.3 °F 24.8 °F 60% 29.93 in 10.0 mi NNW 10.4 mph 17.3 mph N/A   Clear
10:35 PM 37.4 °F 31.4 °F 24.8 °F 60% 29.93 in 10.0 mi North 8.1 mph - N/A   Clear
10:55 PM 37.4 °F 32.1 °F 24.8 °F 60% 29.93 in 10.0 mi North 6.9 mph - N/A   Clear
11:15 PM 37.4 °F 32.8 °F 24.8 °F 60% 29.94 in 10.0 mi NNW 5.8 mph - N/A   Clear
11:35 PM 37.4 °F 31.4 °F 24.8 °F 60% 29.94 in 10.0 mi NNW 8.1 mph 16.1 mph N/A   Clear
11:55 PM 37.4 °F 32.8 °F 24.8 °F 60% 29.94 in 10.0 mi NNW 5.8 mph - N/A   Clear